sat.trackr.live / text

‹ back to catalog

NAHLA

NORAD 66764 · 2025-276DC

PAYLOAD ACTIVE UNKNOWN

§ Identity

Operator
Country
BEL
Launch date
2025-11-28
Launch site
AFWTR
Launch vehicle
Mass (kg)
RCS (m²)

External: N2YO · Heavens-Above · Gunter

§ Orbital elements

Epoch: 2026-09-20T22:53:22.508736Z

Period
94.78 min
Inclination
97.4119°
Eccentricity
0.0003125
Mean motion
15.19295022 rev/d
Perigee alt
505.8 km
Apogee alt
510.1 km
Semi-major
6,886.1 km
B*
7.6694e-5
RAAN
335.6573°
Arg perigee
30.2063°
Mean anomaly
329.9352°
Rev number
4,495

§ Raw data

NAHLA1 66764U 25276DC  26263.95373274  .00001551  00000+0  76694-4 0  99972 66764  97.4119 335.6573 0003125  30.2063 329.9352 15.19295022 44950

JSON: /api/v1/satellites/66764 · /tle

For live sub-satellite position, see the globe view (requires WebGL).

§ Visibility from observer

Set your observer location to see the next 7 days of passes ≥ 10°. The values pass through the URL so the page stays shareable.

No JS? Fill the form by hand. The geolocation button needs JavaScript.